Home > Weather > Sonneberg > Past weeks

Flag for Germany Weather for the Past 2 Weeks in Sonneberg, Thuringia, Germany

Now
36 °F

Scattered clouds.


Feels Like: 30 °F
Forecast: 27 / 35 °F
Wind: 7 mph from Southeast

Location: Hof Airport

Current Time: Feb 12, 2016 at 2:32:33 PM

Latest Report: Feb 12, 2016 at 1:50 PM


Visibility: N/A

Pressure: 29.53 "Hg

Humidity: 70%

Dew point: 27 °F

Location of SonnebergLocation

Historic Weather in Sonneberg — Graph

°F

Sonneberg Temperature Yesterday

Maximum temperature yesterday: 36 °F (at 3:20 PM)
Minimum temperature yesterday: 32 °F (at 7:50 AM)
Average temperature yesterday: 34 °F

High & Low Weather Summary for the Past Weeks

 TemperatureHumidityPressure
High48 °F (Feb 1, 6:50 AM)94% (Feb 1, 7:50 AM)30.30 "Hg (Feb 1, 7:50 AM)
Low30 °F (Feb 3, 7:50 PM)57% (Jan 29, 2:20 PM)29.09 "Hg (Feb 9, 7:20 PM)
Average38 °F82%29.84 "Hg
* Reported Jan 28 1:20 PM — Feb 12 1:20 PM, Sonneberg, Weather by CustomWeather, © 2016

Note: Actual official high and low records may vary slightly from our data, if they occured in-between our weather recording intervals... More about our weather records

Advertising

Sonneberg Weather History for the Previous 24 Hours

 ConditionsComfort  
Time TempWeatherWind HumidityBarometerVisibility
1:20 PM
Fri, Feb 12
36 °FBroken clouds.5 mph75%29.53 "HgN/A
12:50 PM36 °FPartly sunny.8 mph75%29.56 "HgN/A
12:20 PM36 °FScattered clouds.8 mph81%29.56 "HgN/A
11:50 AM34 °FPartly sunny.12 mph87%29.59 "HgN/A
11:20 AM32 °FBroken clouds.8 mph93%29.59 "HgN/A
10:50 AM32 °FLight snow. More clouds than sun.10 mph93%29.59 "HgN/A
10:20 AM32 °FLight snow. Low clouds.9 mph93%29.59 "HgN/A
9:50 AM32 °FLight snow. Mostly cloudy.9 mph93%29.62 "Hg3 mi
9:20 AM32 °FLight snow. Broken clouds.8 mph93%29.62 "Hg3 mi
8:50 AM32 °FBroken clouds.6 mph93%29.62 "Hg4 mi
8:20 AM32 °FLight snow. Cloudy.5 mph93%29.62 "Hg5 mi
7:50 AM32 °FBroken clouds.5 mph93%29.62 "Hg6 mi
7:20 AM32 °FPassing clouds.5 mph87%29.62 "HgN/A
6:50 AM32 °FMostly cloudy.7 mph87%29.62 "HgN/A
7:50 PM
Thu, Feb 11
34 °FPassing clouds.10 mph87%29.65 "HgN/A
7:20 PM34 °FPassing clouds.10 mph87%29.65 "HgN/A
6:50 PM34 °FOvercast.10 mph87%29.65 "HgN/A
6:20 PM34 °FPartly cloudy.8 mph87%29.65 "HgN/A
5:50 PM34 °FPassing clouds.6 mph87%29.65 "HgN/A
5:20 PM34 °FSnow flurries. Broken clouds.3 mph93%29.65 "HgN/A
4:50 PM34 °FSnow flurries. Fog.7 mph87%29.65 "Hg1 mi
4:20 PM34 °FSnow flurries. Partly sunny.9 mph87%29.62 "HgN/A
3:50 PM34 °FBroken clouds.5 mph87%29.62 "HgN/A
3:20 PM36 °FPartly sunny.2 mph87%29.62 "HgN/A
2:50 PM34 °FLight snow. Overcast.8 mph93%29.62 "Hg4 mi
2:20 PM34 °FMore clouds than sun.6 mph93%29.62 "HgN/A
Weather by CustomWeather, © 2016

See weather overviewHow to use our weather pages